Millenium Air

Millenium Air Since 1998



 METAR AND TAF INFORMATION
METAR FOR LGZA
ADDS - METARS form results

(0434 UTC 19 August 2019)
Data provider http://aviationweather.gov/metar/data/
 
METAR text: LGZA 190420Z 00000KT 9999 FEW016 21/18 Q1015
Conditions at: LGZA (ZAKINTHOS AIRPOR, GR) observed 0420 UTC 19 August 2019
Temperature: 21.0°C (70°F)
Dewpoint: 18.0°C (64°F) [RH = 83%]
Pressure (altimeter): 29.97 inches Hg (1015.0 mb)
Winds: calm
Visibility: 6 or more miles (10+ km)
Ceiling: at least 12,000 feet AGL
Clouds: few clouds at 1600 feet AGL
Weather: no significant weather observed at this time

METAR text: LGZA 190350Z 00000KT 9999 FEW016 21/18 Q1015
Conditions at: LGZA (ZAKINTHOS AIRPOR, GR) observed 0350 UTC 19 August 2019
Temperature: 21.0°C (70°F)
Dewpoint: 18.0°C (64°F) [RH = 83%]
Pressure (altimeter): 29.97 inches Hg (1015.0 mb)
Winds: calm
Visibility: 6 or more miles (10+ km)
Ceiling: at least 12,000 feet AGL
Clouds: few clouds at 1600 feet AGL
Weather: no significant weather observed at this time

Forecast for: LGZA (ZAKINTHOS AIRPOR, GR)
Text: TAF LGZA 190200Z 1903/1912 VRB05KT 9999 FEW018
Forecast period: 0300 to 1200 UTC 19 August 2019
Forecast type: FROM: standard forecast or significant change
Winds: variable direction winds at 6 MPH (5 knots; 2.6 m/s)
Visibility: 6 or more miles 10+ km)
Ceiling: at least 12,000 feet AGL
Clouds: few clouds at 1800 feet AGL
Weather: no significant weather forecast for this period

 AIRPORT MAP

 RUNWAY INFORMATION
Runway 16 Runway length 7310 ft Runway width 98 ft
Runway elevation 11 ft Runway displaced threshold 640 ft Runway heading 163
Runway 34 Runway length 7310 ft Runway width 98 ft
Runway elevation 12 ft Runway displaced threshold 659 ft Runway heading 343

 AIRPORT FREQUENCIES
Type A/G Name RDO Frequency 563.7 MHZ
Type TWR Name TWR Frequency 125.425 MHZ

 AIRPORT NEAR NAVIGATION AIDS
Type VOR-DME Name Zakinthos Frequency 110800 KHZ
Type NDB Name Zakinthos Frequency 326 KHZ